Location: Unspecified
(52.4292°N, 19.3359°E)
Time: 02:33:35
(UTC+02:00)

Vanguard 1 Rocket - Pass Details

Date: 19 May 2024
Orbit: 649 x 4221 km, 34.3° (Epoch: 13 June)

Event Time Altitude Azimuth Distance (km) Brightness Sun altitude
Rises 10:14:48 0° 219° (SW) 7,780 12.1 47.1°
Reaches altitude 10° 10:22:10 10° 209° (SSW) 6,184 11.8 48.0°
Maximum altitude 10:34:19 23° 165° (SSE) 3,911 11.6 49.5°
Drops below altitude 10° 10:42:17 10° 118° (ESE) 3,923 11.5 50.4°
Sets 10:45:35 0° 104° (ESE) 4,476 11.4 50.7°
